Weather History for Flint, MI

Change the Weather History Date:

Thursday, February 13, 2014

  Actual Average Record
Temperature  
Mean Temperature 29 °F 24 °F  
Max Temperature 34 °F 32 °F 57 °F (1938)
Min Temperature 24 °F 16 °F -7 °F (1970)
Degree Days  
Heating Degree Days 36 41  
Month to date heating degree days 682 541  
Since 1 July heating degree days 4835 4505  
Cooling Degree Days 0 0  
Month to date cooling degree days 0 0  
Year to date cooling degree days 0 0  
Moisture  
Dew Point 10 °F    
Average Humidity 50    
Maximum Humidity 68    
Minimum Humidity 32    
Precipitation  
Precipitation T in 0.05 in 0.99 in (1938)
Month to date precipitation 0.72 0.63  
Year to date precipitation 3.25 2.26  
Snow  
Snow 0.10 in 0.40 in 3.10 in (1950)
Month to date snowfall 13.2 5.2  
Since 1 July snowfall 64.6 33.0  
Snow Depth 12.00 in    
Sea Level Pressure  
Sea Level Pressure 29.85 in    
Wind  
Wind Speed 6 mph (SSE)    
Max Wind Speed 16 mph    
Max Gust Speed -    
Visibility 10 miles    
Events      
T = Trace of Precipitation, MM = Missing Value Source: NWS Daily Summary

Daily Weather History Graph

Daily Weather History Graph

Search for Another Location

Airport:

Trip Planner

Search our weather history database for the weather conditions in past years. The results will help you decide how hot, cold, wet, or windy it might be!

Date:

Astronomy

Feb. 13, 2014 Rise Set
Actual Time 7:35 AM EST 6:03 PM EST
Civil Twilight 7:05 AM EST 6:33 PM EST
Nautical Twilight 6:32 AM EST 7:06 PM EST
Astronomical Twilight 5:59 AM EST 7:39 PM EST
Moon 5:11 PM EST (2/13) 6:28 AM EST (2/13)
Length of Visible Light 11h 27m
Length of Day
10h 28m
Waxing Gibbous, 98% of the Moon is Illuminated
Feb 13
Waxing Gibbous
Feb 14
Full
Feb 22
Last Quarter
Mar 1
New
Mar 8
First Quarter

Hourly Weather History & Observations

Time (EST) Temp. Windchill Dew Point Humidity Pressure Visibility Wind Dir Wind Speed Gust Speed Precip Events Conditions
12:53 AM 19.0 °F 12.3 °F 7.0 °F 59% 30.08 in 10.0 mi South 4.6 mph - N/A   Overcast
1:53 AM 19.9 °F - 9.0 °F 62% 30.07 in 10.0 mi Calm Calm - N/A   Overcast
2:53 AM 19.9 °F 12.1 °F 9.0 °F 62% 30.08 in 10.0 mi SSE 5.8 mph - N/A   Overcast
3:53 AM 19.9 °F - 7.0 °F 57% 30.05 in 10.0 mi Calm Calm - N/A   Overcast
4:53 AM 19.9 °F - 9.0 °F 62% 30.04 in 10.0 mi Calm Calm - N/A   Overcast
5:53 AM 19.9 °F - 10.0 °F 65% 30.02 in 10.0 mi Calm Calm - N/A   Overcast
6:53 AM 19.9 °F - 10.0 °F 65% 30.00 in 10.0 mi Calm Calm - N/A   Overcast
7:53 AM 21.0 °F - 10.0 °F 63% 30.00 in 9.0 mi Calm Calm - N/A   Overcast
8:53 AM 21.0 °F 14.6 °F 10.9 °F 65% 29.98 in 7.0 mi East 4.6 mph - N/A   Overcast
9:53 AM 23.0 °F 18.4 °F 10.9 °F 60% 29.96 in 8.0 mi East 3.5 mph - N/A   Overcast
10:53 AM 25.0 °F 17.1 °F 8.1 °F 49% 29.93 in 10.0 mi SE 6.9 mph - N/A   Clear
11:53 AM 27.0 °F 20.5 °F 9.0 °F 47% 29.90 in 10.0 mi South 5.8 mph - N/A   Clear
12:53 PM 30.0 °F 19.5 °F 7.0 °F 38% 29.84 in 10.0 mi SSE 13.8 mph - N/A   Scattered Clouds
1:53 PM 32.0 °F 24.8 °F 8.1 °F 37% 29.79 in 10.0 mi SSE 8.1 mph - N/A   Clear
2:53 PM - - - N/A% - - North - - N/A   Unknown
3:53 PM 33.1 °F 24.9 °F 7.0 °F 34% 29.70 in 10.0 mi South 10.4 mph - N/A   Overcast
4:53 PM 28.0 °F 19.3 °F 10.9 °F 49% 29.67 in 10.0 mi South 9.2 mph - N/A   Clear
5:53 PM 30.0 °F 20.5 °F 12.0 °F 47% 29.64 in 10.0 mi SSE 11.5 mph - N/A   Overcast
6:53 PM 28.9 °F 17.3 °F 12.0 °F 49% 29.62 in 10.0 mi SSE 16.1 mph - N/A   Overcast
7:53 PM 27.0 °F 17.3 °F 12.0 °F 53% 29.61 in 10.0 mi South 10.4 mph - N/A   Overcast
8:53 PM 25.0 °F 14.2 °F 12.9 °F 60% 29.59 in 9.0 mi SSE 11.5 mph - 0.00 in   Overcast
9:53 PM 24.1 °F 13.1 °F 15.1 °F 69% 29.55 in 10.0 mi South 11.5 mph - N/A   Overcast
10:53 PM 24.1 °F 13.7 °F 14.0 °F 65% 29.52 in 10.0 mi SSE 10.4 mph - N/A   Overcast
11:53 PM 24.1 °F 13.7 °F 14.0 °F 65% 29.49 in 10.0 mi SSE 10.4 mph - N/A   Overcast